Location: *
(43.4667°N, 11.6833°E)
Time: 09:17:28
(UTC+00:00)

Okean 1 - Pass Details

Date: 19 July 2019
Orbit: 538 x 556 km, 82.5° (Epoch: 23 August)

Event Time Altitude Azimuth Distance (km) Brightness Sun altitude
Rises 23:24:13 0° 351° (N) 2,739 8.2 -25.8°
Reaches altitude 10° 23:26:24 10° 352° (N) 1,837 7.0 -25.8°
Enters shadow 23:29:38 56° 354° (N) 660 3.9 -25.7°
